"Pseudo-MPEC" for C0MDJQ5

Created 2023 Nov 30 8:22:02 UT using Find_Orb

Click here for an explanation of pseudo-MPECs

 
 Astrometry: 
     C0MDJQ5* C2023 11 12.30816503 16 41.513+30 22 18.73   ~BC8M 22.27GVNEOCPV00
     C0MDJQ5  C2023 11 12.31368003 16 42.622+30 22 08.72   ~BC8M 22.30GVNEOCPV00
     C0MDJQ5  C2023 11 12.31918003 16 43.662+30 21 59.58   ~BC8M 23.03GVNEOCPV00
     C0MDJQ5  C2023 11 12.32468503 16 44.746+30 21 49.86   ~BC8M 23.04GVNEOCPV00
     C0MDJQ5 mC2023 11 12.37821903 16 55.243+30 20 15.65   ~BC9b 22.57GVNEOCPV00
     C0MDJQ5 mC2023 11 12.38103203 16 55.787+30 20 10.25   ~BC9b 22.56GVNEOCPV00
     C0MDJQ5 mC2023 11 12.38387903 16 56.377+30 20 05.86   ~BC9b       VNEOCPV00
     C0MDJQ5 mC2023 11 12.38672703 16 56.924+30 20 00.42   ~BC9b 22.93GVNEOCPV00
     C0MDJQ5 mC2023 11 13.32919403 20 19.194+29 53 01.43   ~BD8b 22.68GVNEOCPV00
     C0MDJQ5 mC2023 11 13.33258403 20 19.813+29 52 55.56   ~BD8b 22.27GVNEOCPV00
     C0MDJQ5 mC2023 11 13.33596003 20 20.454+29 52 49.44   ~BD8b       VNEOCPV00
     C0MDJQ5 mC2023 11 13.33877603 20 21.012+29 52 44.44   ~BD8b 22.36GVNEOCPV00

Station data:
(V00) Kitt Peak-Bok  (N31.963125 W111.600190)  US/Arizona.  Observers T. A.
   Pruyne, B. M. Africano, E. J. Christensen, G. A. Farneth, D. C. Fuls, A.
   R. Gibbs, A. D. Grauer, H. Gröller, J. A. Johnson, R. A. Kowalski, S. M.
   Larson, G. J. Leonard, D. Rankin, R. L. Seaman, F. C. Shelly, K. W.
   Wierzchoś. 2.25-m reflector + 4x4K mosaic CCD.

Orbital elements:  C0MDJQ5
   Perihelion 2023 Oct 22.47740 +/- 2.65 TT = 11:27:27 (JD 2460239.97740)
Epoch 2023 Nov 13.0 TT = JDT 2460261.5   Earth MOID: 0.1391      AutoNEOCP
M   6.47544649 +/- 0.8              (J2000 ecliptic)
n   0.30086734 +/- 0.00954          Peri.  138.37415 +/- 3.7
a   2.20573168 +/- 0.0466           Node   250.85349 +/- 0.8
e   0.4911201 +/- 0.0101            Incl.    4.60160 +/- 0.28
P   3.28                   H 25.86  G  0.15   U  9.6
q 1.12245245 +/- 0.0102    Q 3.28901091 +/- 0.0901
From 12 observations 2023 Nov. 12-13 (24.7 hr); mean residual 0".18
Residuals in arcseconds: 
231112 V00  .11-  .25+    231112 V00  .03-  .00     231113 V00  .01+  .09+    
231112 V00  .30+  .25-    231112 V00  .17-  .38-    231113 V00  .20-  .14+    
231112 V00  .14-  .12+    231112 V00  .19+  .32+    231113 V00  .10-  .08-    
231112 V00  .04-  .06-    231112 V00  .01-  .02-    231113 V00  .29+  .14-    

Ephemerides (geocentric):
Date (UTC) HH   RA             Dec           delta  r     elong  mag " sig PA
---- --------  ------------   ------------  ------ ------ -----  --- --------
2023 11 30 08  04 03 06.214   +22 36 11.38  .21867 1.2044 175.3 23.3 1042 128
2023 11 30 09  04 03 10.592   +22 35 19.60  .21885 1.2045 175.3 23.3 1046 128
2023 11 30 10  04 03 14.963   +22 34 27.90  .21903 1.2047 175.3 23.3 1049 128
2023 11 30 11  04 03 19.327   +22 33 36.27  .21920 1.2049 175.2 23.3 1053 128
2023 11 30 12  04 03 23.685   +22 32 44.71  .21938 1.2050 175.2 23.3 1056 128
2023 11 30 13  04 03 28.036   +22 31 53.22  .21956 1.2052 175.2 23.3 1060 128
2023 11 30 14  04 03 32.380   +22 31 01.81  .21974 1.2054 175.2 23.3 1063 128
2023 11 30 15  04 03 36.717   +22 30 10.47  .21992 1.2055 175.2 23.3 1067 128
2023 11 30 16  04 03 41.047   +22 29 19.20  .22010 1.2057 175.1 23.3 1070 128
2023 11 30 17  04 03 45.371   +22 28 28.00  .22028 1.2059 175.1 23.3 1074 128
2023 11 30 18  04 03 49.688   +22 27 36.88  .22046 1.2060 175.1 23.3 1077 128
2023 11 30 19  04 03 53.999   +22 26 45.83  .22064 1.2062 175.1 23.4 1081 128
2023 11 30 20  04 03 58.303   +22 25 54.85  .22082 1.2064 175.1 23.4 1084 128
2023 11 30 21  04 04 02.600   +22 25 03.95  .22100 1.2065 175.0 23.4 1088 128
2023 11 30 22  04 04 06.890   +22 24 13.12  .22118 1.2067 175.0 23.4 1091 128
2023 11 30 23  04 04 11.174   +22 23 22.36  .22136 1.2069 175.0 23.4 1095 128
2023 12 01 00  04 04 15.451   +22 22 31.67  .22154 1.2070 175.0 23.4 1098 128
2023 12 01 01  04 04 19.722   +22 21 41.06  .22172 1.2072 175.0 23.4 1102 128
2023 12 01 02  04 04 23.986   +22 20 50.52  .22190 1.2074 174.9 23.4 1105 128
2023 12 01 03  04 04 28.244   +22 20 00.05  .22208 1.2075 174.9 23.4 1109 128
2023 12 01 04  04 04 32.495   +22 19 09.65  .22227 1.2077 174.9 23.4 1112 128
2023 12 01 05  04 04 36.740   +22 18 19.33  .22245 1.2079 174.9 23.4 1116 128
2023 12 01 06  04 04 40.978   +22 17 29.08  .22263 1.2080 174.8 23.4 1119 128
2023 12 01 07  04 04 45.209   +22 16 38.90  .22281 1.2082 174.8 23.4 1123 128
2023 12 01 08  04 04 49.434   +22 15 48.80  .22299 1.2084 174.8 23.4 1126 128
2023 12 01 09  04 04 53.653   +22 14 58.77  .22318 1.2085 174.8 23.4 1130 128
2023 12 01 10  04 04 57.865   +22 14 08.81  .22336 1.2087 174.7 23.4 1133 128
2023 12 01 11  04 05 02.071   +22 13 18.93  .22354 1.2089 174.7 23.4 1137 128
2023 12 01 12  04 05 06.271   +22 12 29.11  .22373 1.2091 174.7 23.4 1140 128
2023 12 01 13  04 05 10.464   +22 11 39.38  .22391 1.2092 174.7 23.4 1144 128
2023 12 01 14  04 05 14.651   +22 10 49.71  .22409 1.2094 174.7 23.4 1147 128
2023 12 01 15  04 05 18.831   +22 10 00.12  .22428 1.2096 174.6 23.4 1150 128
2023 12 01 16  04 05 23.005   +22 09 10.59  .22446 1.2097 174.6 23.4 1154 128
2023 12 01 17  04 05 27.173   +22 08 21.15  .22465 1.2099 174.6 23.4 1157 128
2023 12 01 18  04 05 31.335   +22 07 31.77  .22483 1.2101 174.6 23.4 1161 129
2023 12 01 19  04 05 35.490   +22 06 42.47  .22501 1.2102 174.5 23.4 1164 129
2023 12 01 20  04 05 39.639   +22 05 53.24  .22520 1.2104 174.5 23.4 1168 129
2023 12 01 21  04 05 43.782   +22 05 04.09  .22539 1.2106 174.5 23.4 1171 129
2023 12 01 22  04 05 47.919   +22 04 15.00  .22557 1.2108 174.5 23.4 1175 129
2023 12 01 23  04 05 52.049   +22 03 26.00  .22576 1.2109 174.4 23.4 1178 129
2023 12 02 00  04 05 56.173   +22 02 37.06  .22594 1.2111 174.4 23.4 1182 129
2023 12 02 01  04 06 00.291   +22 01 48.20  .22613 1.2113 174.4 23.4 1185 129
2023 12 02 02  04 06 04.403   +22 00 59.40  .22631 1.2114 174.4 23.4 1189 129
2023 12 02 03  04 06 08.509   +22 00 10.69  .22650 1.2116 174.3 23.5 1192 129
2023 12 02 04  04 06 12.609   +21 59 22.04  .22669 1.2118 174.3 23.5 1196 129
2023 12 02 05  04 06 16.702   +21 58 33.47  .22687 1.2120 174.3 23.5 1199 129
2023 12 02 06  04 06 20.790   +21 57 44.97  .22706 1.2121 174.3 23.5 1203 129
2023 12 02 07  04 06 24.871   +21 56 56.55  .22725 1.2123 174.2 23.5 1206 129